Proserpine Hamilton Isla, Australia

11:37 PM AEST on February 24, 2017 (GMT +1000)
Hamilton Island

Weather History for YBHM - October, 2012

Change the Weather History Date:

Tuesday, October 9, 2012

  Actual Average Record
Temperature  
Mean Temperature 76 °F -  
Max Temperature 80 °F - - ()
Min Temperature 72 °F - - ()
Cooling Degree Days 11    
Growing Degree Days 26 (Base 50)    
Moisture  
Dew Point 64 °F    
Average Humidity 66    
Maximum Humidity 73    
Minimum Humidity 48    
Precipitation  
Precipitation 0.00 in - - ()
Sea Level Pressure  
Sea Level Pressure 29.84 in    
Wind  
Wind Speed 14 mph ()    
Max Wind Speed 23 mph    
Max Gust Speed -    
T = Trace of Precipitation, MM = Missing Value Source: Averaged Metar Reports

Daily Weather History Graph

Daily Weather History Graph

Search for Another Location

Airport or City:

Trip Planner

Search our weather history database for the weather conditions in past years. The results will help you decide how hot, cold, wet, or windy it might be!

Date:

Astronomy

Oct. 09, 2012 Rise Set
Actual Time 5:38 AM AEST 6:04 PM AEST
Civil Twilight 5:16 AM AEST 6:26 PM AEST
Nautical Twilight 4:50 AM AEST 6:52 PM AEST
Astronomical Twilight 4:24 AM AEST 7:19 PM AEST
Moon 12:42 AM AEST (10/9) 12:09 PM AEST (10/9)
Length of Visible Light 13h 10m
Length of Day
12h 25m
Last Quarter, 42% of the Moon is Illuminated
Oct 9
Last Quarter
Oct 15
New
Oct 22
First Quarter
Oct 30
Full
Nov 7
Last Quarter

Hourly Weather History & Observations

Time (AEST) Temp. Heat Index Dew Point Humidity Pressure Visibility Wind Dir Wind Speed Gust Speed Precip Events Conditions
12:00 AM 72 °F - 63 °F 65% 29.84 in - NNW 9.2 mph - -  
12:00 AM 71.6 °F - 62.6 °F 73% 29.83 in - NNW 9.2 mph - N/A   Unknown
12:30 AM 71.6 °F - 62.6 °F 73% 29.83 in - NNW 11.5 mph - N/A   Unknown
1:00 AM 71.6 °F - 62.6 °F 73% 29.83 in - NNW 11.5 mph - N/A   Unknown
1:30 AM 73.4 °F - 62.6 °F 69% 29.80 in - NNW 9.2 mph - N/A   Unknown
2:00 AM 71.6 °F - 62.6 °F 73% 29.80 in - NNW 10.4 mph - N/A   Unknown
2:30 AM 73.4 °F - 64.4 °F 73% 29.83 in - NW 9.2 mph - N/A   Unknown
3:00 AM 73 °F - 63 °F 64% 29.81 in - WNW 13.8 mph - -  
3:00 AM 73.4 °F - 62.6 °F 69% 29.80 in - WNW 13.8 mph - N/A   Unknown
3:30 AM 73.4 °F - 62.6 °F 69% 29.83 in - WNW 11.5 mph - N/A   Unknown
4:00 AM 73.4 °F - 64.4 °F 73% 29.83 in - WNW 12.7 mph - N/A   Unknown
4:30 AM 73.4 °F - 62.6 °F 69% 29.83 in - NW 11.5 mph - N/A   Unknown
5:00 AM 73.4 °F - 64.4 °F 73% 29.86 in - NW 12.7 mph - N/A   Unknown
5:30 AM 73.4 °F - 64.4 °F 73% 29.86 in - NW 12.7 mph - N/A   Unknown
6:00 AM 73 °F - 64 °F 67% 29.87 in - NW 13.8 mph - -  
6:00 AM 73.4 °F - 64.4 °F 73% 29.86 in - NW 13.8 mph - N/A   Unknown
6:30 AM 73.4 °F - 64.4 °F 73% 29.86 in - NW 13.8 mph - N/A   Unknown
7:00 AM 75.2 °F - 64.4 °F 69% 29.89 in - NW 13.8 mph - N/A   Unknown
8:00 AM 75.2 °F - 64.4 °F 69% 29.89 in - NW 16.1 mph - N/A   Unknown
8:30 AM 75.2 °F - 62.6 °F 65% 29.89 in - NW 16.1 mph - N/A   Unknown
9:00 AM 76 °F - 63 °F 56% 29.90 in - NW 17.3 mph - -  
9:00 AM 77.0 °F - 62.6 °F 61% 29.89 in - NW 17.3 mph - N/A   Unknown
9:30 AM 77.0 °F - 64.4 °F 65% 29.89 in - NW 17.3 mph - N/A   Unknown
10:00 AM 78.8 °F - 64.4 °F 61% 29.89 in - NW 15.0 mph - N/A   Unknown
10:30 AM 78.8 °F - 62.6 °F 57% 29.89 in - NW 16.1 mph - N/A   Unknown
11:00 AM 77.0 °F - 60.8 °F 57% 29.86 in - NW 18.4 mph - N/A   Unknown
12:00 PM 79 °F - 63 °F 48% 29.85 in - NW 20.7 mph - -  
12:00 PM 78.8 °F - 62.6 °F 57% 29.86 in - NW 20.7 mph - N/A   Unknown
12:30 PM 78.8 °F - 62.6 °F 57% 29.83 in - NW 23.0 mph - N/A   Unknown
1:00 PM 78.8 °F - 62.6 °F 57% 29.83 in - NW 21.9 mph - N/A   Unknown
1:30 PM 78.8 °F - 62.6 °F 57% 29.80 in - NW 21.9 mph - N/A   Unknown
2:00 PM 78.8 °F - 62.6 °F 57% 29.80 in - NW 20.7 mph - N/A   Unknown
2:30 PM 78.8 °F - 62.6 °F 57% 29.80 in - NW 20.7 mph - N/A   Unknown
3:00 PM 80 °F - 64 °F 48% 29.78 in - NW 21.9 mph - -  
3:00 PM 80.6 °F 82.3 °F 64.4 °F 58% 29.77 in - NW 21.9 mph - N/A   Unknown
3:30 PM 78.8 °F - 64.4 °F 61% 29.77 in - NW 23.0 mph - N/A   Unknown
4:00 PM 78.8 °F - 64.4 °F 61% 29.77 in - NW 21.9 mph - N/A   Unknown
4:30 PM 78.8 °F - 64.4 °F 61% 29.77 in - NW 20.7 mph - N/A   Unknown
5:00 PM 77.0 °F - 64.4 °F 65% 29.80 in - NW 20.7 mph - N/A   Unknown
5:30 PM 75.2 °F - 64.4 °F 69% 29.80 in - NW 23.0 mph - N/A   Unknown
6:00 PM 75 °F - 65 °F 63% 29.80 in - NNW 23.0 mph - -  
6:00 PM 75.2 °F - 64.4 °F 69% 29.80 in - NNW 23.0 mph - N/A   Unknown
6:30 PM 75.2 °F - 64.4 °F 69% 29.80 in - NW 23.0 mph - N/A   Unknown
7:00 PM 75.2 °F - 66.2 °F 73% 29.80 in - NNW 23.0 mph - N/A   Unknown
7:30 PM 75.2 °F - 66.2 °F 73% 29.83 in - NNW 18.4 mph - N/A   Unknown
8:00 PM 75.2 °F - 64.4 °F 69% 29.83 in - NNW 17.3 mph - N/A   Unknown
8:30 PM 75.2 °F - 64.4 °F 69% 29.86 in - NNW 17.3 mph - N/A   Unknown
9:00 PM 74 °F - 65 °F 67% 29.87 in - NNW 15.0 mph - -  
9:00 PM 75.2 °F - 66.2 °F 73% 29.86 in - NNW 15.0 mph - N/A   Unknown
9:30 PM 75.2 °F - 64.4 °F 69% 29.86 in - NNW 15.0 mph - N/A   Unknown
10:00 PM 75.2 °F - 64.4 °F 69% 29.86 in - NNW 12.7 mph - N/A   Unknown
10:30 PM 75.2 °F - 64.4 °F 69% 29.86 in - NW 13.8 mph - N/A   Unknown
11:00 PM 75.2 °F - 64.4 °F 69% 29.89 in - NNW 11.5 mph - N/A   Unknown
11:30 PM 75.2 °F - 64.4 °F 69% 29.89 in - NNW 13.8 mph - N/A   Unknown